DW7857 Weather Reports


time (UTC)temp
F
wind
direction
speed
knots
gust
knots
rain 1hr
in
rain 24hr
in
rain mn
in
humidity
%
barometer
mb
20170924172011 61 189 1.7 3.5 0.00 0.00 0.00 88 1024.8
20170924171012 61 202 1.7 3.5 0.00 0.00 0.00 88 1024.9
20170924170012 61 114 1.7 3.5 0.00 0.00 0.00 88 1024.5
20170924165011 61 104 0.9 1.7 0.00 0.00 0.00 87 1024.6
20170924164011 60 142 0.9 1.7 0.00 0.00 0.00 87 1024.7
20170924163012 61 169 2.6 3.5 0.00 0.00 0.00 86 1024.7
20170924162012 61 193 2.6 3.5 0.00 0.00 0.00 85 1024.7
20170924161011 61 186 3.5 5.2 0.00 0.00 0.00 84 1024.7
20170924160011 62 176 3.5 3.5 0.00 0.00 0.00 84 1024.8
20170924155011 62 209 4.3 9.6 0.00 0.00 0.00 85 1024.6
20170924154011 61 164 5.2 7.8 0.00 0.00 0.00 83 1024.5
20170924153011 62 181 5.2 8.7 0.00 0.00 0.00 83 1025.0
20170924152011 62 184 5.2 7.0 0.00 0.00 0.00 86 1024.9
20170924151011 62 173 3.5 4.3 0.00 0.00 0.00 86 1024.7
20170924150011 62 188 3.5 7.0 0.00 0.00 0.00 87 1024.7
20170924145012 62 193 3.5 4.3 0.00 0.00 0.00 88 1024.6
20170924144011 62 185 3.5 6.1 0.00 0.00 0.00 88 1024.7
20170924143011 62 198 2.6 4.3 0.00 0.00 0.00 89 1024.6
20170924142011 62 183 3.5 6.1 0.00 0.00 0.00 88 1024.6
20170924141012 62 202 3.5 4.3 0.00 0.00 0.00 87 1024.7
20170924140011 62 195 2.6 4.3 0.00 0.00 0.00 86 1024.6
20170924135011 62 155 1.7 3.5 0.00 0.00 0.00 85 1024.7
20170924134011 62 192 3.5 4.3 0.00 0.00 0.00 84 1024.6
20170924133011 62 168 2.6 6.1 0.00 0.00 0.00 83 1025.0
20170924132011 62 199 2.6 4.3 0.00 0.00 0.00 82 1024.6
20170924131011 63 184 4.3 7.0 0.00 0.00 0.00 81 1024.6
20170924130011 64 212 1.7 3.5 0.00 0.00 0.00 77 1024.8
20170924125012 64 268 1.7 3.5 0.00 0.00 0.00 75 1024.5
20170924124011 64 164 0.9 3.5 0.00 0.00 0.00 73 1024.7
20170924123011 65 162 3.5 7.0 0.00 0.00 0.00 71 1024.8
20170924122011 65 178 2.6 7.0 0.00 0.00 0.00 70 1024.6
20170924121011 66 161 2.6 7.0 0.00 0.00 0.00 69 1024.5
20170924120011 67 172 2.6 7.0 0.00 0.00 0.00 67 1024.8
20170924115011 66 153 1.7 7.8 0.00 0.00 0.00 70 1024.5
20170924114011 65 115 2.6 5.2 0.00 0.00 0.00 71 1024.6
20170924113011 65 144 1.7 3.5 0.00 0.00 0.00 72 1024.5
20170924112011 64 150 1.7 5.2 0.00 0.00 0.00 73 1024.5
20170924111011 64 135 0.9 5.2 0.00 0.00 0.00 71 1024.7
20170924110011 65 90 0.9 3.5 0.00 0.00 0.00 71 1024.4
20170924105011 65 0 0.0 0.0 0.00 0.00 0.00 72 1024.5
20170924104011 64 113 0.9 3.5 0.00 0.00 0.00 72 1024.5
20170924103011 64 152 4.3 7.0 0.00 0.00 0.00 71 1024.6
20170924102011 65 140 2.6 4.3 0.00 0.00 0.00 71 1024.7
20170924101011 64 176 2.6 7.0 0.00 0.00 0.00 73 1024.8
20170924100011 64 171 0.9 3.5 0.00 0.00 0.00 73 1024.8
20170924095011 64 175 2.6 3.5 0.00 0.00 0.00 73 1024.7
20170924094011 64 178 2.6 3.5 0.00 0.00 0.00 74 1024.7
20170924093011 65 148 2.6 6.1 0.00 0.00 0.00 74 1024.8
20170924092011 64 126 2.6 8.7 0.00 0.00 0.00 76 1024.6
20170924091011 64 153 2.6 5.2 0.00 0.00 0.00 77 1024.5
20170924090011 64 178 1.7 3.5 0.00 0.00 0.00 80 1024.5
20170924085011 63 191 2.6 3.5 0.00 0.00 0.00 85 1024.4
20170924084011 62 35 1.7 3.5 0.00 0.00 0.00 87 1024.7
20170924083011 61 181 0.0 0.9 0.00 0.00 0.00 88 1024.8
20170924082011 60 181 0.0 0.9 0.00 0.00 0.00 88 1024.6
20170924081011 59 0 0.0 0.0 0.00 0.00 0.00 89 1024.6
20170924080011 59 0 0.0 0.0 0.00 0.00 0.00 89 1024.9
20170924075011 58 0 0.0 0.0 0.00 0.00 0.00 90 1024.5
20170924074011 58 0 0.0 0.0 0.00 0.00 0.00 90 1024.4
20170924073011 58 0 0.0 0.0 0.00 0.00 0.00 90 1024.3
20170924072011 58 0 0.0 0.0 0.00 0.00 0.00 90 1024.4
20170924071011 57 0 0.0 0.0 0.00 0.00 0.00 90 1024.1
20170924070011 57 0 0.0 0.0 0.00 0.00 0.00 90 1024.1
20170924065011 56 270 0.0 1.7 0.00 0.00 0.00 90 1024.1
20170924064011 56 0 0.0 0.0 0.00 0.00 0.00 90 1024.0
20170924063011 56 0 0.0 0.0 0.00 0.00 0.00 90 1024.1
20170924062011 56 0 0.0 0.0 0.00 0.00 0.00 90 1024.0
20170924061011 55 0 0.0 0.0 0.00 0.00 0.00 90 1024.1
20170924060011 55 0 0.0 0.0 0.00 0.00 0.00 90 1023.9
20170924055011 55 187 1.7 3.5 0.00 0.00 0.00 90 1023.8
20170924054011 55 0 0.0 0.0 0.00 0.00 0.00 90 1023.6
20170924053011 55 0 0.0 0.0 0.00 0.00 0.00 90 1023.6
20170924052011 55 0 0.0 0.0 0.00 0.00 0.00 90 1023.6
20170924051011 55 0 0.0 0.0 0.00 0.00 0.00 90 1023.8
20170924050011 55 0 0.0 0.0 0.00 0.00 0.00 90 1023.6
20170924045011 55 182 1.7 3.5 0.00 0.00 0.00 90 1023.5
20170924044011 55 179 2.6 3.5 0.00 0.00 0.00 89 1023.4
20170924043011 55 260 1.7 3.5 0.00 0.00 0.00 88 1023.5
20170924042011 54 0 0.0 0.0 0.00 0.00 0.00 90 1023.5
20170924041011 54 314 0.0 0.9 0.00 0.00 0.00 90 1023.5
20170924040011 54 314 0.0 0.9 0.00 0.00 0.00 90 1023.5
20170924035011 54 314 0.0 1.7 0.00 0.00 0.00 90 1023.8
20170924034011 54 0 0.0 0.0 0.00 0.00 0.00 90 1023.5
20170924033011 54 314 0.0 0.9 0.00 0.00 0.00 89 1023.6
20170924032011 55 314 0.0 1.7 0.00 0.00 0.00 85 1024.1
20170924031011 55 314 0.0 0.9 0.00 0.00 0.00 85 1023.9
20170924030011 55 0 0.0 0.0 0.00 0.00 0.00 85 1023.8
20170924025011 55 0 0.0 0.0 0.00 0.00 0.00 85 1024.1
20170924024010 56 314 0.0 0.9 0.00 0.00 0.00 85 1024.1
20170924023010 56 314 0.9 1.7 0.00 0.00 0.00 85 1024.3
20170924022010 56 19 0.9 1.7 0.00 0.00 0.00 85 1024.2
20170924021010 56 90 0.9 3.5 0.00 0.00 0.00 85 1024.3
20170924020010 56 109 0.0 0.9 0.00 0.00 0.00 84 1024.5
20170924015010 56 0 0.0 0.0 0.00 0.00 0.00 84 1024.6
20170924014011 56 0 0.0 0.0 0.00 0.00 0.00 84 1024.6
20170924013011 56 45 0.0 0.9 0.00 0.00 0.00 84 1024.8
20170924012010 56 61 0.0 1.7 0.00 0.00 0.00 83 1024.9
20170924011010 56 0 0.0 0.0 0.00 0.00 0.00 83 1025.0
20170924010010 57 90 0.9 1.7 0.00 0.00 0.00 83 1025.1
20170924005010 57 63 1.7 2.6 0.00 0.00 0.00 83 1024.9
20170924004010 57 197 1.7 3.5 0.00 0.00 0.00 83 1025.1
20170924003010 57 155 0.9 1.7 0.00 0.00 0.00 82 1025.0
20170924002010 57 318 0.9 1.7 0.00 0.00 0.00 82 1025.0
20170924001010 57 293 0.9 3.5 0.00 0.00 0.00 82 1025.2
20170924000015 57 166 1.7 3.5 0.00 0.01 0.00 83 1025.4
20170923235010 57 175 3.5 4.3 0.00 0.01 0.01 83 1025.4
20170923234010 57 177 0.9 1.7 0.00 0.01 0.01 83 1025.4
20170923233010 57 205 0.9 1.7 0.00 0.01 0.01 83 1025.2
20170923232010 57 170 0.9 3.5 0.00 0.01 0.01 84 1025.3
20170923231010 56 174 2.6 4.3 0.00 0.02 0.01 84 1025.5
20170923230010 56 252 1.7 2.6 0.00 0.02 0.01 84 1025.8
20170923225010 56 22 0.9 3.5 0.00 0.02 0.01 83 1025.6
20170923224010 56 172 1.7 2.6 0.00 0.02 0.01 83 1025.8
20170923223010 56 196 1.7 3.5 0.00 0.02 0.01 83 1025.9
20170923222010 56 178 2.6 3.5 0.00 0.02 0.01 83 1025.9
20170923221010 56 191 2.6 3.5 0.00 0.02 0.01 83 1026.0
20170923220010 56 188 2.6 3.5 0.00 0.02 0.01 82 1026.1
20170923215010 56 213 1.7 3.5 0.00 0.02 0.01 82 1026.0
20170923214010 56 192 1.7 3.5 0.00 0.02 0.01 81 1026.1
20170923213010 56 197 1.7 3.5 0.00 0.02 0.01 81 1026.2
20170923212010 57 270 1.7 2.6 0.00 0.02 0.01 81 1026.4
20170923211010 57 236 2.6 3.5 0.00 0.02 0.01 81 1026.4
20170923210010 57 200 3.5 5.2 0.00 0.02 0.01 81 1026.3
20170923205010 57 232 2.6 3.5 0.00 0.02 0.01 81 1026.2
20170923204011 57 198 1.7 4.3 0.00 0.02 0.01 81 1026.0
20170923203010 57 197 2.6 4.3 0.00 0.02 0.01 82 1026.5
20170923202010 57 206 2.6 3.5 0.00 0.02 0.01 82 1026.5
20170923201010 57 225 2.6 7.0 0.00 0.02 0.01 81 1026.4
20170923200010 56 150 2.6 7.0 0.00 0.02 0.01 81 1026.1
20170923195010 56 86 1.7 2.6 0.00 0.02 0.01 80 1026.3
20170923194010 56 195 1.7 3.5 0.00 0.02 0.01 80 1026.3
20170923193010 56 212 1.7 2.6 0.00 0.02 0.01 80 1026.4
20170923192010 56 206 0.9 3.5 0.00 0.02 0.01 79 1026.6
20170923191010 56 0 0.0 0.0 0.00 0.02 0.01 77 1026.5
20170923190010 56 0 0.0 0.0 0.00 0.02 0.01 76 1026.6
20170923185010 56 0 0.0 0.0 0.00 0.02 0.01 76 1026.6
20170923184010 57 0 0.0 0.0 0.00 0.02 0.01 75 1026.6
20170923183010 57 0 0.0 0.0 0.00 0.02 0.01 74 1026.3
20170923182010 57 181 0.0 1.7 0.00 0.02 0.01 73 1026.2
20170923181010 57 0 0.0 0.0 0.00 0.02 0.01 72 1026.3
20170923180010 58 90 0.0 1.7 0.00 0.02 0.01 71 1026.5
20170923175010 58 167 1.7 1.7 0.00 0.02 0.01 70 1026.4
20170923174010 59 138 1.7 4.3 0.00 0.02 0.01 69 1026.5
20170923173010 60 128 1.7 3.5 0.00 0.02 0.01 68 1026.4